COSMO-SKYMED 1 (31598 NORAD) Tracking and Keplerian Element Data

This shows tracking and keplerian element data for the satellite.

Feedback or suggestion? Click here.




ElementValue
Catalog31598
NameCOSMO-SKYMED 1
Epoch Orbit95556
Epoch Day35.16964948
Epoch Year2025
RAAN220.9788
Inclination97.8884
Eccentricity0.0001287
Argument of Perigee82.9421
Mean Anonmoly277.1938
Mean Motion14.82146077
Decay Rate1.429E-05
L11 31598U 07023A 25035.16964948 .00001429 00000+0 18611-3 0 9995
L22 31598 97.8884 220.9788 0001287 82.9421 277.1938 14.82146077955569



Live tracking and technical data element details for COSMO-SKYMED 1 (NORAD 31598). COSMO-SKYMED 1 can be tracked NOW for your location showing map with azimuth and elevation plus other details from your city location.







IsCatalogInMostPopularTable: catalog: 31598, numindb: 638
Update: records affected: 1



GetName: 31598 COSMO-SKYMED 1

Hit Count: updated at: Thu, 13 Feb 2025 15:10:24 GMT